QPF
0.00 0.00 0.00 0.00 0.00 0.00 0.00 0.00 0.00 0.00 0.00 0.00 0.00 0.00 0.00 0.00 0.00 0.00 0.00 0.00 0.00 0.00 0.00 0.00 0.00 0.00 0.00 0.00 0.00 0.00 0.00 0.00 0.00 0.00 0.00 0.00 0.00 0.00 0.00 0.00 0.00 0.00 0.00
0.00 0.00 0.00 0.00 0.00 0.00 0.00 0.00 0.00 0.00 0.00 0.00 0.00 0.00 0.00 0.00 0.00 0.00 0.00 0.00 0.00 0.00 0.00 0.00 0.00 0.00 0.00 0.00 0.00 0.00 0.00 0.00 0.00 0.00 0.00 0.00 0.00 0.00 0.00 0.00 0.00 0.00 0.00
0.00 0.00 0.00 0.00 0.00 0.00 0.00 0.00 0.00 0.00 0.00 0.00 0.00 0.00 0.00 0.00 0.00 0.00 0.00 0.00 0.00 0.00 0.00 0.00 0.00 0.00 0.00 0.00 0.00 0.00 0.00 0.00 0.00 0.00 0.00 0.00 0.00 0.00 0.00 0.00 0.00 0.00 0.00
0.00 0.00 0.00 0.00 0.00 0.00 0.00 0.00 0.00 0.00 0.00 0.00 0.00 0.00 0.00 0.00 0.00 0.00 0.00 0.00 0.00 0.00 0.00 0.00 0.00 0.00 0.00 0.00 0.00 0.00 0.00 0.00 0.00 0.00 0.00 0.00 0.00 0.00 0.00 0.00 0.00 0.00 0.00
0.00 0.00 0.00 0.00 0.00 0.00 0.00 0.00 0.00 0.00 0.00 0.00 0.00 0.00 0.00 0.00 0.00 0.00 0.00 0.00 0.00 0.00 0.00 0.00 0.00 0.00 0.00 0.00 0.00 0.00 0.00 0.00 0.00 0.00 0.00 0.00 0.00 0.00 0.00 0.00 0.00 0.00 0.00
0.00 0.00 0.00 0.00 0.00 0.00 0.00 0.00 0.00 0.00 0.00 0.00 0.00 0.00 0.00 0.00 0.00 0.00 0.00 0.00 0.00 0.00 0.00 0.00 0.00 0.00 0.00 0.00 0.00 0.00 0.00 0.00 0.00 0.00 0.00 0.00 0.00 0.00 0.00 0.00 0.00 0.00 0.00
0.00 0.00 0.00 0.00 0.00 0.00 0.00 0.00 0.00 0.00 0.00 0.00 0.00 0.00 0.00 0.00 0.00 0.00 0.00 0.00 0.00 0.00 0.00 0.00 0.00 0.00 0.00 0.00 0.00 0.00 0.00 0.00 0.00 0.00 0.00 0.00 0.00 0.00 0.00 0.00 0.00 0.00 0.00
0.00 0.00 0.00 0.00 0.00 0.00 0.00 0.00 0.00 0.00 0.00 0.00 0.00 0.00 0.00 0.00 0.00 0.00 0.00 0.00 0.00 0.00 0.00 0.00 0.00 0.00 0.00 0.00 0.00 0.00 0.00 0.00 0.00 0.00 0.00 0.00 0.00 0.00 0.00 0.00 0.00 0.00 0.00
0.00 0.00 0.00 0.00 0.00 0.00 0.00 0.00 0.00 0.00 0.00 0.00 0.00 0.00 0.00 0.00 0.00 0.00 0.00 0.00 0.00 0.00 0.00 0.00 0.00 0.00 0.00 0.00 0.00 0.00 0.00 0.00 0.00 0.00 0.00 0.00 0.00 0.00 0.00 0.00 0.00 0.00 0.00
0.00 0.00 0.00 0.00 0.00 0.00 0.00 0.00 0.00 0.00 0.00 0.00 0.00 0.00 0.00 0.00 0.00 0.00 0.00 0.00 0.00 0.00 0.00 0.00 0.00 0.00 0.00 0.00 0.00 0.01 0.01 0.01 0.01 0.01 0.01 0.00 0.00 0.00 0.00 0.00 0.00 0.00 0.01
0.00 0.00 0.00 0.00 0.00 0.00 0.00 0.00 0.00 0.00 0.00 0.00 0.00 0.00 0.00 0.00 0.00 0.00 0.00 0.00 0.00 0.00 0.00 0.00 0.00 0.00 0.00 0.00 0.00 0.01 0.01 0.02 0.04 0.01 0.02 0.01 0.00 0.00 0.00 0.00 0.00 0.00 0.00
0.00 0.00 0.00 0.00 0.00 0.00 0.00 0.00 0.00 0.00 0.00 0.00 0.00 0.00 0.00 0.00 0.00 0.00 0.00 0.00 0.00 0.00 0.00 0.00 0.00 0.00 0.00 0.00 0.00 0.00 0.00 0.00 0.01 0.00 0.00 0.00 0.00 0.00 0.00 0.00 0.00 0.00 0.00
0.00 0.00 0.00 0.00 0.00 0.00 0.00 0.00 0.00 0.00 0.00 0.00 0.00 0.00 0.00 0.00 0.00 0.00 0.00 0.00 0.00 0.00 0.00 0.00 0.00 0.00 0.00 0.00 0.00 0.00 0.00 0.00 0.00 0.00 0.00 0.00 0.00 0.00 0.00 0.00 0.00 0.00 0.00
0.00 0.00 0.00 0.00 0.00 0.00 0.00 0.00 0.00 0.00 0.00 0.00 0.00 0.00 0.00 0.00 0.00 0.00 0.00 0.00 0.00 0.00 0.00 0.00 0.00 0.00 0.00 0.00 0.00 0.00 0.00 0.00 0.00 0.00 0.00 0.00 0.00 0.00 0.00 0.00 0.00 0.00 0.00
0.01 0.00 0.00 0.00 0.00 0.00 0.00 0.00 0.00 0.00 0.00 0.00 0.00 0.00 0.00 0.00 0.00 0.00 0.00 0.00 0.00 0.00 0.00 0.00 0.00 0.00 0.00 0.00 0.00 0.00 0.00 0.00 0.00 0.00 0.00 0.00 0.00 0.00 0.00 0.00 0.01 0.00 0.00
0.01 0.01 0.00 0.00 0.00 0.00 0.00 0.00 0.00 0.00 0.00 0.00 0.00 0.00 0.00 0.00 0.00 0.00 0.00 0.00 0.00 0.00 0.00 0.00 0.00 0.00 0.00 0.00 0.00 0.00 0.00 0.00 0.00 0.00 0.00 0.00 0.00 0.00 0.00 0.00 0.00 0.01 0.01
0.00 0.00 0.00 0.00 0.00 0.00 0.00 0.00 0.00 0.00 0.00 0.00 0.00 0.00 0.00 0.00 0.00 0.00 0.00 0.00 0.00 0.00 0.00 0.00 0.00 0.00 0.00 0.00 0.00 0.00 0.00 0.00 0.00 0.00 0.00 0.00 0.00 0.00 0.00 0.00 0.00 0.00 0.00
0.01 0.01 0.00 0.00 0.00 0.00 0.00 0.00 0.00 0.00 0.00 0.00 0.00 0.00 0.00 0.00 0.00 0.00 0.00 0.00 0.00 0.00 0.00 0.00 0.00 0.00 0.00 0.00 0.00 0.00 0.00 0.00 0.00 0.00 0.00 0.00 0.00 0.00 0.00 0.00 0.00 0.00 0.00
0.01 0.01 0.01 0.00 0.00 0.00 0.00 0.00 0.00 0.00 0.00 0.00 0.00 0.00 0.00 0.00 0.00 0.00 0.00 0.00 0.00 0.00 0.00 0.00 0.00 0.00 0.00 0.00 0.00 0.00 0.00 0.00 0.00 0.00 0.00 0.00 0.00 0.00 0.00 0.00 0.00 0.00 0.00
0.01 0.02 0.01 0.00 0.00 0.00 0.00 0.00 0.00 0.00 0.00 0.00 0.00 0.00 0.00 0.00 0.00 0.00 0.00 0.00 0.00 0.00 0.00 0.00 0.00 0.00 0.00 0.00 0.00 0.00 0.00 0.00 0.00 0.00 0.00 0.00 0.00 0.00 0.00 0.00 0.00 0.00 0.00
0.00 0.00 0.00 0.00 0.00 0.00 0.00 0.00 0.00 0.00 0.00 0.00 0.00 0.00 0.00 0.00 0.00 0.00 0.00 0.00 0.00 0.00 0.00 0.00 0.00 0.00 0.00 0.00 0.00 0.00 0.00 0.00 0.00 0.00 0.00 0.00 0.00 0.00 0.00 0.00 0.00 0.00 0.00
0.00 0.00 0.00 0.00 0.00 0.00 0.00 0.00 0.00 0.00 0.00 0.00 0.00 0.00 0.00 0.00 0.00 0.00 0.00 0.00 0.00 0.00 0.00 0.00 0.00 0.00 0.00 0.00 0.00 0.00 0.00 0.00 0.00 0.00 0.00 0.00 0.00 0.00 0.00 0.00 0.00 0.00 0.00
0.00 0.00 0.00 0.00 0.00 0.00 0.00 0.00 0.00 0.00 0.00 0.00 0.00 0.00 0.00 0.00 0.00 0.00 0.00 0.00 0.00 0.00 0.00 0.00 0.00 0.00 0.00 0.00 0.00 0.00 0.00 0.00 0.00 0.00 0.00 0.00 0.00 0.00 0.00 0.00 0.00 0.00 0.00
0.00 0.00 0.00 0.00 0.01 0.01 0.00 0.00 0.00 0.00 0.00 0.00 0.00 0.00 0.00 0.00 0.00 0.00 0.00 0.00 0.00 0.00 0.00 0.00 0.00 0.00 0.00 0.00 0.00 0.00 0.00 0.00 0.00 0.00 0.00 0.00 0.00 0.00 0.00 0.00 0.00 0.00 0.00
0.00 0.00 0.00 0.00 0.00 0.00 0.00 0.00 0.00 0.00 0.00 0.00 0.00 0.00 0.00 0.00 0.00 0.00 0.00 0.00 0.00 0.00 0.00 0.00 0.00 0.00 0.00 0.00 0.00 0.00 0.00 0.00 0.00 0.00 0.00 0.00 0.00 0.00 0.00 0.00 0.00 0.00 0.00
0.00 0.00 0.00 0.00 0.00 0.00 0.00 0.00 0.00 0.00 0.00 0.00 0.00 0.00 0.00 0.00 0.00 0.00 0.00 0.00 0.00 0.00 0.00 0.00 0.00 0.00 0.00 0.00 0.00 0.00 0.00 0.00 0.00 0.00 0.00 0.00 0.00 0.00 0.00 0.00 0.00 0.00 0.00
MSLP
1018.39 1018.91 1019.22 1019.36 1019.76 1019.96 1020.30 1020.80 1020.96 1021.15 1021.07 1020.98 1021.00 1020.84 1020.99 1020.83 1020.83 1020.70 1020.58 1020.45 1020.42 1020.21 1020.03 1019.77 1019.53 1019.02 1018.70 1018.62 1018.31 1018.06 1017.20 1016.58 1016.53 1015.64 1014.61 1013.32 1012.62 1012.35 1012.22 1012.24 1012.11 1012.00 1011.86
1018.42 1019.11 1019.36 1019.55 1019.82 1020.03 1020.45 1020.97 1021.28 1021.38 1021.46 1021.49 1021.59 1021.59 1021.54 1021.63 1021.70 1021.56 1021.39 1021.28 1021.20 1021.01 1020.63 1020.40 1020.04 1019.76 1019.58 1019.27 1018.93 1018.59 1018.07 1017.24 1017.22 1016.84 1016.27 1015.02 1013.43 1012.92 1012.39 1012.32 1012.29 1012.11 1011.80
1017.57 1018.55 1019.07 1019.68 1019.78 1020.01 1020.46 1020.90 1021.20 1021.47 1021.68 1021.81 1021.88 1021.78 1021.66 1021.88 1021.99 1022.02 1021.96 1021.79 1021.61 1021.52 1021.36 1021.13 1020.74 1020.26 1019.92 1019.77 1019.53 1019.13 1018.75 1018.34 1017.77 1017.26 1016.96 1016.11 1015.44 1014.82 1012.99 1012.44 1012.34 1012.48 1012.55
1017.46 1018.07 1018.85 1019.65 1019.70 1020.19 1020.64 1021.03 1021.37 1021.65 1021.96 1022.07 1022.22 1022.46 1022.67 1022.87 1022.95 1022.77 1022.47 1022.15 1021.82 1021.66 1021.48 1021.42 1021.17 1020.77 1020.40 1020.18 1019.92 1019.62 1019.33 1018.95 1018.27 1017.55 1017.00 1016.80 1016.40 1015.76 1014.55 1013.25 1012.55 1012.36 1012.49
1016.71 1017.65 1018.53 1019.08 1019.55 1020.22 1020.85 1021.26 1021.57 1021.96 1022.27 1022.31 1022.42 1022.78 1023.14 1023.34 1023.24 1023.03 1022.75 1022.49 1022.21 1021.82 1021.50 1021.35 1021.29 1021.08 1020.76 1020.50 1020.25 1019.91 1019.59 1019.31 1018.88 1018.43 1018.00 1017.24 1016.44 1015.99 1015.77 1014.30 1013.52 1013.19 1012.97
1016.81 1017.74 1018.48 1019.04 1019.71 1020.33 1021.04 1021.48 1021.73 1022.21 1022.49 1022.73 1022.99 1023.21 1023.52 1023.61 1023.33 1023.35 1023.22 1022.97 1022.57 1022.35 1022.01 1021.78 1021.64 1021.36 1020.94 1020.70 1020.60 1020.19 1019.98 1019.75 1019.43 1019.05 1018.63 1018.14 1017.48 1016.76 1016.35 1015.48 1014.60 1014.10 1013.33
1016.57 1017.48 1018.31 1019.10 1019.85 1020.57 1021.26 1021.85 1022.01 1022.54 1022.89 1023.19 1023.32 1023.40 1023.43 1023.33 1023.53 1023.66 1023.57 1023.31 1023.07 1022.66 1022.47 1022.23 1022.00 1021.68 1021.30 1021.12 1020.87 1020.59 1020.44 1020.27 1019.96 1019.67 1019.21 1018.67 1018.31 1017.94 1017.22 1016.51 1015.66 1014.97 1014.32
1016.37 1017.22 1018.14 1019.17 1019.84 1020.80 1021.40 1021.99 1022.35 1022.72 1023.05 1023.45 1023.67 1023.54 1023.31 1023.46 1023.69 1023.74 1023.82 1023.57 1023.54 1023.10 1022.89 1022.68 1022.49 1022.11 1021.85 1021.62 1021.31 1021.18 1020.96 1020.74 1020.60 1020.40 1019.92 1019.40 1019.04 1018.55 1017.98 1017.42 1016.83 1015.72 1014.74
1016.19 1017.19 1018.31 1019.22 1020.18 1021.05 1021.56 1022.13 1022.61 1022.92 1023.18 1023.56 1023.65 1023.72 1023.80 1023.79 1023.86 1023.93 1023.80 1023.62 1023.93 1023.11 1023.15 1023.18 1023.07 1022.75 1022.43 1022.16 1021.81 1021.71 1021.50 1021.26 1021.34 1021.14 1020.79 1020.14 1019.73 1019.14 1018.54 1018.10 1017.56 1016.81 1015.49
1016.40 1017.19 1018.26 1019.21 1020.25 1021.06 1021.68 1022.19 1022.61 1023.04 1023.43 1023.54 1023.48 1024.06 1024.06 1024.10 1023.98 1023.99 1023.85 1023.63 1024.48 1023.84 1023.84 1023.68 1023.69 1023.61 1022.97 1022.63 1022.41 1022.36 1022.30 1021.89 1022.22 1022.09 1021.78 1021.05 1020.34 1019.69 1019.18 1018.75 1018.30 1017.65 1017.06
1016.03 1017.05 1018.29 1019.25 1020.10 1020.97 1021.69 1022.04 1022.64 1023.19 1023.53 1023.49 1023.55 1023.93 1024.13 1024.31 1024.23 1024.09 1024.02 1024.01 1024.90 1024.51 1024.52 1024.54 1024.64 1024.37 1023.62 1023.19 1023.16 1023.07 1022.98 1022.74 1023.19 1022.86 1022.70 1021.96 1020.95 1020.17 1019.71 1019.26 1018.77 1018.17 1017.57
1015.84 1016.94 1018.22 1019.41 1020.03 1020.60 1021.45 1021.87 1022.43 1022.92 1023.31 1023.31 1023.63 1024.04 1024.18 1024.52 1024.72 1024.54 1024.53 1024.34 1025.43 1025.23 1025.09 1025.04 1025.13 1024.83 1024.25 1023.84 1023.90 1023.87 1023.85 1023.58 1023.74 1023.82 1023.35 1022.54 1021.52 1020.89 1020.32 1019.88 1019.38 1018.84 1018.15
1015.72 1016.80 1018.12 1019.19 1019.69 1020.17 1021.05 1021.60 1022.18 1022.69 1023.12 1023.59 1023.91 1024.31 1024.53 1024.76 1025.09 1025.19 1025.22 1025.01 1025.85 1025.99 1025.91 1025.63 1025.57 1025.16 1024.72 1024.25 1024.58 1024.67 1024.65 1024.63 1024.45 1024.48 1023.88 1023.24 1022.36 1021.60 1021.12 1020.73 1020.02 1019.63 1019.15
1015.05 1016.26 1017.49 1018.47 1019.33 1019.84 1020.70 1021.42 1021.81 1022.32 1022.81 1023.50 1024.05 1024.73 1025.02 1025.22 1025.47 1025.67 1025.66 1025.82 1026.30 1026.55 1026.45 1026.29 1026.03 1025.48 1024.90 1024.90 1025.06 1025.23 1025.35 1025.20 1025.22 1024.96 1024.46 1023.83 1022.77 1022.37 1022.22 1021.74 1021.44 1020.86 1019.88
1014.93 1015.48 1016.38 1017.86 1018.73 1019.61 1020.49 1021.36 1021.77 1022.17 1022.57 1023.47 1024.46 1025.18 1025.32 1025.50 1025.94 1026.25 1026.18 1026.71 1026.89 1027.07 1026.87 1026.70 1026.47 1025.84 1025.39 1025.34 1025.65 1025.83 1025.84 1025.85 1025.66 1025.29 1024.69 1024.18 1023.79 1023.53 1023.45 1023.05 1022.42 1021.42 1020.70
1012.84 1014.06 1015.90 1016.95 1017.81 1018.82 1020.06 1021.10 1021.40 1022.20 1022.68 1023.67 1024.78 1025.45 1025.50 1025.90 1026.27 1026.60 1026.88 1027.48 1027.63 1027.49 1027.42 1027.35 1027.08 1026.64 1026.21 1026.03 1026.18 1026.53 1026.67 1026.57 1026.22 1025.64 1025.36 1024.64 1024.65 1024.67 1024.34 1023.80 1023.12 1022.44 1021.67
1012.15 1013.30 1014.25 1015.76 1016.92 1018.31 1019.54 1020.53 1021.16 1022.20 1023.20 1024.23 1025.16 1025.63 1025.72 1026.19 1026.56 1026.90 1027.63 1028.20 1028.24 1028.20 1028.21 1028.09 1027.81 1027.41 1027.05 1026.73 1026.82 1027.22 1027.29 1027.13 1026.86 1026.46 1025.92 1025.31 1025.12 1025.03 1024.78 1024.46 1024.27 1023.85 1022.72
1009.48 1011.79 1013.86 1015.73 1016.99 1017.66 1019.07 1020.36 1021.17 1022.22 1023.18 1024.49 1025.28 1025.63 1026.00 1026.38 1026.86 1027.47 1028.30 1028.63 1028.80 1028.87 1028.89 1028.79 1028.53 1028.05 1027.60 1027.45 1027.48 1027.64 1027.77 1027.57 1027.23 1026.89 1026.49 1026.23 1025.85 1025.52 1025.57 1025.20 1025.02 1024.82 1024.19
1009.46 1011.54 1012.94 1014.63 1016.45 1017.70 1018.76 1020.31 1021.37 1022.29 1023.43 1024.64 1025.64 1025.73 1025.96 1026.48 1027.08 1028.13 1028.73 1028.94 1029.24 1029.55 1029.55 1029.56 1029.22 1028.62 1028.12 1027.98 1028.06 1028.25 1028.24 1028.12 1027.85 1027.48 1026.99 1026.63 1026.11 1026.08 1026.37 1026.18 1025.84 1025.66 1025.32
1010.45 1011.88 1013.76 1015.47 1016.78 1017.86 1018.92 1020.42 1021.37 1022.42 1023.85 1024.89 1025.62 1025.69 1026.04 1026.68 1027.47 1028.27 1028.87 1029.24 1029.62 1030.02 1030.14 1030.17 1029.80 1029.39 1028.78 1028.06 1028.32 1028.87 1029.03 1028.80 1028.49 1028.14 1027.81 1026.78 1026.69 1026.60 1026.58 1026.62 1026.44 1026.14 1026.16
1011.78 1013.10 1014.30 1015.61 1016.87 1017.84 1019.14 1020.36 1021.37 1022.91 1024.02 1024.97 1025.47 1025.58 1026.16 1026.79 1027.51 1028.12 1028.65 1029.34 1030.04 1030.39 1030.68 1030.71 1030.50 1030.20 1029.34 1028.88 1028.43 1028.67 1029.23 1029.19 1029.12 1028.85 1028.60 1028.14 1027.50 1027.07 1027.03 1026.95 1026.96 1026.96 1027.02
1013.49 1014.38 1015.11 1016.26 1017.44 1018.54 1019.41 1020.28 1021.68 1023.12 1024.15 1024.71 1025.06 1025.66 1026.33 1027.01 1027.67 1028.01 1028.62 1029.34 1030.03 1030.74 1031.22 1031.26 1031.10 1030.91 1030.79 1029.28 1028.82 1028.75 1028.80 1029.07 1029.56 1029.34 1029.12 1028.96 1028.53 1028.34 1027.82 1027.94 1027.71 1027.51 1027.55
1014.91 1015.32 1015.64 1016.71 1018.19 1018.97 1019.35 1020.57 1022.12 1023.11 1023.98 1024.42 1025.17 1025.73 1026.57 1027.28 1027.80 1028.22 1028.79 1029.44 1030.15 1030.83 1031.44 1031.64 1031.62 1031.59 1031.13 1030.88 1029.73 1029.25 1029.35 1029.51 1030.12 1029.91 1029.40 1029.62 1029.63 1029.67 1029.81 1028.90 1028.75 1028.92 1028.62
1015.22 1015.88 1016.38 1017.36 1018.34 1019.15 1019.96 1020.84 1022.16 1023.12 1023.74 1024.29 1025.07 1025.87 1026.88 1027.59 1028.04 1028.52 1028.97 1029.50 1030.10 1030.66 1031.22 1031.56 1031.66 1031.73 1031.24 1030.84 1030.72 1030.82 1030.79 1030.53 1030.86 1031.08 1031.22 1031.13 1030.88 1031.29 1031.16 1030.65 1030.08 1029.77 1029.61
1015.91 1016.21 1016.72 1017.63 1018.58 1019.45 1020.27 1021.19 1022.09 1022.81 1023.59 1024.34 1025.09 1026.07 1026.99 1027.65 1028.36 1028.87 1029.20 1029.63 1030.04 1030.26 1030.85 1031.29 1031.27 1031.47 1031.28 1030.53 1030.21 1030.60 1031.05 1031.66 1031.58 1031.75 1032.04 1032.25 1032.24 1032.10 1031.79 1031.54 1031.20 1030.80 1030.38
1016.08 1016.64 1017.26 1017.92 1018.78 1019.72 1020.59 1021.35 1022.00 1022.64 1023.41 1024.30 1025.28 1026.16 1027.02 1027.86 1028.56 1028.98 1029.53 1029.73 1029.99 1030.26 1030.55 1030.78 1030.87 1031.40 1030.47 1030.31 1030.36 1030.51 1030.81 1031.15 1031.53 1032.20 1033.07 1033.39 1033.35 1032.98 1032.68 1032.45 1032.16 1031.71 1031.42
Thickness
5632 5627 5622 5619 5615 5614 5611 5606 5603 5601 5600 5599 5598 5598 5595 5594 5593 5592 5591 5589 5587 5585 5584 5584 5582 5584 5583 5581 5582 5582 5588 5591 5593 5600 5607 5619 5625 5626 5624 5621 5624 5626 5630
5624 5617 5611 5607 5605 5604 5601 5595 5593 5591 5588 5585 5582 5580 5578 5576 5574 5573 5573 5570 5566 5565 5564 5562 5560 5558 5556 5557 5558 5559 5562 5569 5566 5570 5575 5589 5601 5607 5609 5607 5607 5613 5615
5621 5614 5609 5600 5598 5596 5591 5587 5583 5579 5575 5573 5570 5569 5567 5563 5561 5558 5557 5554 5550 5547 5544 5542 5540 5538 5537 5535 5535 5537 5539 5542 5546 5546 5551 5564 5570 5574 5588 5592 5596 5595 5595
5612 5607 5597 5589 5589 5585 5580 5576 5573 5569 5565 5562 5557 5553 5548 5544 5541 5539 5540 5539 5537 5533 5530 5525 5521 5518 5518 5516 5514 5514 5516 5519 5523 5527 5531 5533 5541 5552 5561 5571 5576 5584 5584
5611 5602 5592 5587 5582 5578 5570 5564 5560 5556 5551 5548 5545 5539 5533 5528 5526 5524 5523 5523 5521 5518 5515 5511 5506 5502 5499 5498 5497 5497 5498 5499 5502 5504 5505 5511 5520 5529 5537 5555 5553 5560 5565
5598 5591 5584 5578 5571 5567 5558 5552 5549 5543 5538 5533 5528 5524 5519 5514 5513 5508 5505 5503 5502 5499 5496 5492 5488 5486 5484 5483 5480 5481 5481 5481 5482 5484 5486 5488 5494 5503 5512 5526 5537 5541 5551
5588 5581 5574 5565 5559 5554 5545 5538 5536 5529 5523 5517 5514 5511 5506 5503 5497 5492 5488 5486 5483 5482 5478 5474 5471 5470 5468 5465 5464 5463 5462 5461 5463 5463 5466 5468 5471 5476 5486 5499 5512 5519 5528
5580 5573 5564 5553 5548 5541 5534 5526 5522 5515 5509 5503 5499 5496 5494 5489 5483 5479 5473 5470 5464 5463 5459 5456 5454 5453 5451 5448 5447 5444 5441 5441 5443 5443 5444 5448 5453 5458 5464 5473 5483 5496 5509
5568 5561 5551 5542 5533 5526 5521 5513 5507 5501 5497 5491 5487 5483 5478 5475 5470 5465 5461 5456 5446 5446 5443 5439 5437 5435 5434 5432 5430 5427 5425 5424 5422 5422 5423 5429 5434 5442 5448 5455 5464 5473 5492
5555 5549 5539 5530 5518 5511 5506 5499 5493 5487 5482 5479 5477 5468 5464 5460 5457 5451 5447 5443 5428 5428 5425 5423 5419 5416 5418 5417 5414 5410 5407 5408 5402 5401 5402 5409 5417 5425 5431 5438 5447 5456 5465
5546 5539 5528 5516 5505 5497 5491 5487 5481 5473 5469 5467 5463 5457 5452 5446 5441 5437 5432 5427 5412 5410 5407 5405 5400 5398 5401 5401 5397 5395 5392 5392 5384 5383 5384 5391 5400 5409 5416 5425 5434 5443 5452
5537 5528 5515 5500 5492 5487 5480 5475 5469 5464 5459 5457 5451 5444 5440 5432 5426 5421 5416 5413 5397 5394 5389 5387 5381 5380 5383 5384 5380 5379 5377 5376 5372 5367 5370 5378 5389 5397 5406 5413 5421 5429 5438
5524 5514 5502 5490 5486 5480 5471 5465 5460 5455 5449 5443 5437 5431 5425 5419 5411 5405 5400 5397 5382 5378 5373 5371 5366 5366 5367 5368 5365 5363 5362 5360 5359 5356 5362 5367 5377 5386 5394 5401 5410 5417 5423
5519 5507 5496 5488 5479 5472 5462 5457 5453 5447 5442 5434 5425 5415 5410 5405 5398 5392 5387 5381 5370 5363 5360 5356 5353 5354 5355 5354 5353 5352 5351 5350 5349 5349 5352 5357 5367 5374 5379 5386 5392 5400 5410
5509 5504 5494 5482 5473 5463 5452 5446 5443 5437 5432 5422 5410 5402 5398 5392 5385 5379 5375 5364 5356 5350 5347 5343 5341 5342 5344 5344 5343 5342 5342 5341 5341 5343 5346 5351 5355 5358 5362 5369 5377 5388 5396
5514 5506 5487 5477 5469 5458 5445 5435 5435 5427 5420 5408 5397 5389 5386 5379 5373 5367 5361 5349 5342 5339 5334 5330 5330 5331 5334 5336 5334 5332 5331 5332 5334 5338 5339 5344 5345 5346 5350 5356 5364 5372 5380
5509 5499 5489 5473 5463 5451 5439 5431 5425 5415 5405 5395 5384 5378 5375 5367 5362 5357 5346 5336 5332 5328 5323 5321 5321 5323 5325 5327 5326 5325 5325 5326 5328 5330 5334 5338 5339 5342 5345 5348 5351 5355 5363
5524 5504 5479 5463 5452 5444 5433 5423 5414 5404 5396 5384 5375 5369 5363 5358 5353 5344 5332 5327 5323 5318 5314 5314 5314 5316 5318 5319 5319 5318 5318 5320 5322 5325 5328 5329 5333 5336 5335 5339 5341 5342 5348
5509 5485 5474 5460 5445 5432 5425 5411 5400 5393 5384 5373 5362 5359 5355 5349 5343 5330 5322 5319 5316 5310 5308 5307 5308 5311 5312 5313 5313 5312 5312 5312 5313 5316 5320 5323 5327 5326 5325 5327 5330 5332 5336
5480 5469 5452 5439 5428 5419 5411 5397 5390 5383 5370 5361 5352 5349 5345 5339 5331 5321 5316 5312 5307 5303 5302 5301 5302 5306 5307 5310 5308 5306 5305 5304 5306 5308 5311 5315 5316 5316 5318 5319 5321 5324 5325
5457 5447 5437 5425 5416 5409 5398 5387 5381 5368 5359 5350 5344 5343 5337 5331 5323 5316 5312 5307 5301 5296 5294 5294 5296 5298 5302 5304 5303 5301 5300 5297 5298 5299 5300 5302 5305 5308 5309 5311 5311 5311 5311
5432 5426 5419 5410 5402 5393 5387 5379 5368 5356 5347 5342 5339 5334 5328 5321 5316 5312 5307 5302 5297 5291 5287 5287 5289 5290 5292 5296 5297 5297 5296 5294 5292 5290 5292 5293 5294 5295 5298 5298 5299 5300 5301
5409 5407 5405 5397 5384 5380 5378 5367 5354 5346 5338 5336 5329 5325 5317 5312 5308 5305 5301 5296 5292 5288 5286 5285 5281 5282 5285 5287 5288 5290 5288 5287 5284 5285 5285 5282 5282 5281 5281 5284 5284 5284 5285
5397 5392 5388 5380 5373 5368 5363 5356 5344 5336 5332 5328 5321 5315 5307 5302 5299 5297 5295 5291 5288 5284 5282 5279 5276 5275 5278 5280 5282 5279 5278 5277 5275 5273 5271 5270 5268 5268 5267 5268 5269 5268 5268
5382 5381 5378 5370 5362 5356 5351 5343 5336 5330 5325 5319 5313 5306 5300 5295 5291 5288 5287 5284 5282 5281 5277 5273 5274 5270 5268 5272 5275 5272 5267 5265 5263 5261 5258 5254 5251 5251 5252 5252 5251 5251 5251
5371 5367 5363 5357 5351 5344 5338 5332 5327 5323 5317 5312 5304 5297 5292 5287 5283 5282 5278 5277 5276 5274 5272 5270 5270 5268 5268 5267 5265 5262 5259 5255 5251 5247 5240 5238 5236 5237 5236 5234 5233 5233 5231